STARLINK-33815, 63497

Orbit data source: Space-Track

STARLINK-33815, 63497 is a payload satellite in LEO that was launched on Mon, 07 Apr 2025 UTC via an FALCON 9 launch vehicle from the Air Force Western Test Range (AFWTR). Payload-class satellites include a variety of spacecraft equipped with specific instruments for various scientific and technological missions. These include communications satellites like Starlink; space stations such as the ISS; scientific satellites like the Hubble; Earth observation satellites from companies like Planet Labs, Umbra, and HawkEye 360; GPS; miniature CubeSats for education and research; and military/defense satellites.

Loading next visibility...
Identifier
63497, 2025-071E
Orbit
LEO
Last TLE update
19 hours ago
Origin
Manufacturer
SpaceX/Seattle
Mission
Operational Commercial Communications
Bus & Motor
STARLINK V2MO, Unknown motor
Mass
575 kg wet, ~530 kg dry
Launch date (UTC)
2025-04-07 (1 month ago)
Launch vehicle
FALCON 9
Launch site
Air Force Western Test Range (AFWTR)
Object type
Payload
Rocket body
Debris
Shape & HBR
Box + 1 Pan, 29 m
Radar Cross Section
41.120 m², Large (>1 m²)

Expand to show TLE details & history

TLE from 19 hours ago
0 STARLINK-33815
1 63497U 25071E   25139.91667824  .00017848  00000-0  45578-3 0  9997
2 63497  53.1605  68.2054 0001135  98.1563 108.2804 15.39577077  7739
Epoch: 2025-05-19T22:00Z
TLE epoch observation values (Epoch: 2025-05-19T22:00:00.999Z)
Latitude
-21.06934°
Longitude
57.05846°
Altitude
453.513 km
Speed
7.64 km/s
True Right ascension
17h 39m 32s
True Declination
-20° 56' 57"
Sunlit
Object was in full shadow at epoch
Visualization orbit readout
Latitude
-52.09616°
Longitude
143.52868°
Altitude
466.119 km
Speed
7.633 km/s
Apparent Right ascension
17h 49m 57s
Apparent Declination
-72° 26' 16"
Sunlit
Object is in daylight
Visualization observer readout
Local Sidereal Time
01:54:53
Azimuth
202.244° SSW
Elevation
-47.034°
Doppler factor
1
Orbital elements
Apogee altitude
448.391 km
Perigee altitude
446.842 km
Semi-major axis
6,825.753 km
Eccentricity
0.00011
Inclination
53.1605°
RAAN
68.2054°
Arg. of periapsis
98.1563°
True anomaly
Unknown
Mean anomaly
108.2804°
Eccentric anomaly
Unknown
Mean motion
3.84873 °/min
Orbital period
93.54 mins
BSTAR
0.00045578
Loading maneuver chart data...
Loading SW <> Apogee altitude chart data...
Loading historical data...
Loading historical data...
Loading historical data...
Loading historical data...
Loading historical data...
Loading historical data...
Loading historical data...

STARLINK-33815 Visibility forecast

Observer location: undefined°, undefined°

Span
Click to sort rows by Start time (UTC) header in descending order
Start Az.
Max El. time (UTC)
Max El. Az.
Max El.
End time (UTC)
End Az.
4 mins2025-05-20 20:37:56.942Z162.513° S2025-05-20 20:39:56.942Z125.244° SE15.226°2025-05-20 20:41:56.942Z89.765° E
5 mins2025-05-20 22:14:56.942Z254.263° W2025-05-20 22:16:56.942Z335.982° NNW38.838°2025-05-20 22:19:56.942Z41.372° NE
5 mins2025-05-21 04:46:56.942Z303.058° NW2025-05-21 04:48:56.942Z266.524° W41.547°2025-05-21 04:51:56.942Z140.823° SSE
|